QFA2071 OMDB-YSSY

Flight info

Callsign QFA2071
Flight time N/A
Altitude 33000
Route ANVIX L223 TARDI N629 GIDAN P570 EMURU M300 VASTU P895 BIKOK M641 BAXAM/N0502F350 M641 DOGAR DCT DAOVO DCT PIBED DCT 09S094E 10S095E DCT POROR DCT 19S106E/N0488F370 21S109E DCT ATLOD DCT ISDOR DCT LST DCT FRT/N0479F390 DCT ENTRE DCT CDU J149 WHA J21 BORLI H205 CULIN Y59 RIVET
Aircraft A35K/H-SDE2E3GHIJ3J4J5LM1ORWXY/LB1D1

Departure

Time 2026-04-24 23:44
Airport Dubai International Airport (OMDB)

Arrival

Time N/A
Airport Sydney Kingsford Smith International Airport (YSSY)
Time Latitude Longitude Altitude Speed Heading
2026-04-24 23:26 25.25162 55.38116 39 ft 0 kts 33°
2026-04-24 23:35 25.25148 55.38106 38 ft 3 kts 33°
2026-04-24 23:35 25.25133 55.38095 37 ft 3 kts 33°
2026-04-24 23:35 25.25118 55.38084 37 ft 2 kts 33°
2026-04-24 23:35 25.25101 55.38073 37 ft 3 kts 50°
2026-04-24 23:36 25.25092 55.38054 34 ft 3 kts 86°
2026-04-24 23:36 25.25091 55.38042 35 ft 0 kts 108°
2026-04-24 23:40 25.25088 55.38052 39 ft 4 kts 113°
2026-04-24 23:40 25.25070 55.38091 39 ft 8 kts 118°
2026-04-24 23:40 25.25027 55.38147 39 ft 11 kts 153°
2026-04-24 23:41 25.24945 55.38136 38 ft 15 kts 207°
2026-04-24 23:41 25.24848 55.38068 40 ft 17 kts 227°
2026-04-24 23:41 25.24850 55.37941 39 ft 19 kts 299°
2026-04-24 23:41 25.24858 55.37926 39 ft 0 kts 300°
2026-04-24 23:43 25.24858 55.37925 39 ft 1 kts 300°
2026-04-24 23:43 25.24926 55.37805 38 ft 60 kts 301°
2026-04-24 23:44 25.25314 55.37109 31 ft 152 kts 301°
2026-04-24 23:44 25.25965 55.35941 510 ft 188 kts 301°
2026-04-24 23:44 25.26654 55.34703 1562 ft 194 kts 302°
2026-04-24 23:44 25.27392 55.33379 2109 ft 210 kts 302°
2026-04-24 23:45 25.27910 55.32446 2409 ft 219 kts 302°
2026-04-24 23:45 25.28713 55.30976 3048 ft 226 kts 300°
2026-04-24 23:45 25.29189 55.29314 3771 ft 232 kts 273°
2026-04-24 23:45 25.28605 55.27029 4938 ft 233 kts 246°
2026-04-24 23:46 25.28141 55.25961 5469 ft 234 kts 245°
2026-04-24 23:46 25.27423 55.24340 6259 ft 236 kts 245°
2026-04-24 23:46 25.26708 55.22706 6842 ft 237 kts 245°
2026-04-24 23:46 25.25995 55.21057 7423 ft 239 kts 245°
2026-04-24 23:47 25.25276 55.19391 8019 ft 241 kts 245°
2026-04-24 23:47 25.24348 55.17838 8624 ft 245 kts 227°
2026-04-24 23:47 25.22891 55.16862 9248 ft 253 kts 198°
2026-04-24 23:47 25.21112 55.16701 9866 ft 265 kts 179°
2026-04-24 23:48 25.19301 55.17189 10426 ft 274 kts 156°
2026-04-24 23:48 25.17810 55.18522 11021 ft 283 kts 128°
2026-04-24 23:48 25.16783 55.20419 11619 ft 292 kts 118°
2026-04-24 23:48 25.15849 55.22452 12218 ft 300 kts 118°
2026-04-24 23:49 25.14889 55.24524 12828 ft 307 kts 118°
2026-04-24 23:49 25.13894 55.26638 13464 ft 313 kts 119°
2026-04-24 23:49 25.12876 55.28786 14060 ft 318 kts 119°
2026-04-24 23:49 25.11851 55.30929 14622 ft 322 kts 119°
2026-04-24 23:50 25.10791 55.33134 15175 ft 326 kts 119°
2026-04-24 23:50 25.09770 55.35387 15784 ft 331 kts 115°
2026-04-24 23:50 25.08830 55.37723 16398 ft 335 kts 114°
2026-04-24 23:50 25.07883 55.40091 17024 ft 339 kts 115°
2026-04-24 23:51 25.06917 55.42483 17654 ft 343 kts 114°
2026-04-24 23:51 25.05977 55.44924 18276 ft 347 kts 113°
2026-04-24 23:51 25.05045 55.47389 18848 ft 349 kts 113°
2026-04-24 23:51 25.04112 55.49840 19426 ft 352 kts 114°
2026-04-24 23:52 25.03157 55.52335 19999 ft 354 kts 114°
2026-04-24 23:52 25.02171 55.54834 20596 ft 356 kts 116°
2026-04-24 23:52 25.00998 55.57236 21206 ft 356 kts 122°
2026-04-24 23:52 24.99733 55.59590 21830 ft 357 kts 123°
2026-04-24 23:53 24.98456 55.61943 22470 ft 358 kts 123°
2026-04-24 23:53 24.97177 55.64301 23123 ft 358 kts 123°
2026-04-24 23:53 24.95915 55.66633 23725 ft 358 kts 123°
2026-04-24 23:53 24.94630 55.68994 24283 ft 358 kts 124°
2026-04-24 23:54 24.93240 55.71269 24852 ft 357 kts 128°
2026-04-24 23:54 24.91775 55.73493 25434 ft 357 kts 129°
2026-04-24 23:54 24.90318 55.75685 26012 ft 358 kts 129°
2026-04-24 23:54 24.88849 55.77896 26611 ft 358 kts 129°
2026-04-24 23:55 24.87377 55.80113 27238 ft 358 kts 129°
2026-04-24 23:55 24.85905 55.82330 27866 ft 359 kts 129°
2026-04-24 23:55 24.84433 55.84548 28498 ft 359 kts 130°
2026-04-24 23:55 24.82956 55.86769 29157 ft 358 kts 130°
2026-04-24 23:56 24.81471 55.88960 29816 ft 357 kts 130°
2026-04-24 23:56 24.79984 55.91145 30414 ft 355 kts 130°
2026-04-24 23:56 24.78486 55.93285 31004 ft 351 kts 134°
2026-04-24 23:56 24.76847 55.95245 31622 ft 345 kts 139°
2026-04-24 23:57 24.75143 55.97083 32237 ft 339 kts 141°
2026-04-24 23:57 24.73424 55.98843 32746 ft 338 kts 142°
2026-04-24 23:57 24.71680 56.00589 32902 ft 349 kts 142°
2026-04-24 23:57 24.69833 56.02428 32913 ft 366 kts 142°
2026-04-24 23:58 24.67902 56.04366 32907 ft 384 kts 141°
2026-04-24 23:58 24.65892 56.06410 32901 ft 402 kts 141°
2026-04-24 23:58 24.63800 56.08551 32903 ft 420 kts 141°
2026-04-24 23:58 24.61617 56.10794 32904 ft 435 kts 140°
2026-04-24 23:59 24.59405 56.13075 32906 ft 450 kts 140°
2026-04-24 23:59 24.57128 56.15537 32906 ft 469 kts 135°
2026-04-24 23:59 24.54906 56.18253 32907 ft 487 kts 134°
2026-04-24 23:59 24.52634 56.21105 32909 ft 504 kts 134°
2026-04-25 00:00 24.50310 56.24063 32912 ft 519 kts 133°
2026-04-25 00:00 24.47926 56.27112 32907 ft 534 kts 133°
2026-04-25 00:00 24.43018 56.33395 32884 ft 542 kts 133°
2026-04-25 00:01 24.38112 56.39654 32870 ft 540 kts 133°
2026-04-25 00:01 24.33199 56.45892 32853 ft 540 kts 133°
2026-04-25 00:02 24.28297 56.52152 32847 ft 541 kts 131°
2026-04-25 00:02 24.23847 56.58765 32848 ft 543 kts 127°
2026-04-25 00:03 24.19527 56.65552 32857 ft 543 kts 127°
2026-04-25 00:03 24.15135 56.72300 32873 ft 543 kts 128°
2026-04-25 00:04 24.10696 56.78991 32878 ft 543 kts 128°
2026-04-25 00:04 24.06256 56.85637 32882 ft 543 kts 128°
2026-04-25 00:05 24.01803 56.92302 32889 ft 541 kts 128°
2026-04-25 00:05 23.97350 56.98951 32886 ft 541 kts 128°
2026-04-25 00:06 23.92890 57.05599 32883 ft 541 kts 128°
2026-04-25 00:06 23.88430 57.12243 32885 ft 541 kts 128°
2026-04-25 00:07 23.84011 57.18827 32879 ft 540 kts 128°
2026-04-25 00:07 23.79554 57.25448 32885 ft 540 kts 128°
2026-04-25 00:08 23.75097 57.32063 32876 ft 540 kts 128°
2026-04-25 00:08 23.70628 57.38664 32872 ft 540 kts 129°
2026-04-25 00:09 23.65973 57.45098 32894 ft 540 kts 130°
2026-04-25 00:09 23.61248 57.51479 32884 ft 540 kts 130°
2026-04-25 00:10 23.56576 57.57836 32906 ft 540 kts 130°
2026-04-25 00:10 23.51891 57.64251 32895 ft 540 kts 130°
2026-04-25 00:11 23.47212 57.70666 32923 ft 540 kts 130°
2026-04-25 00:11 23.42524 57.77077 32908 ft 540 kts 130°
2026-04-25 00:12 23.37828 57.83478 32915 ft 541 kts 130°
2026-04-25 00:12 23.33133 57.89874 32932 ft 540 kts 130°
2026-04-25 00:13 23.28464 57.96227 32907 ft 540 kts 130°
2026-04-25 00:13 23.23774 58.02609 32925 ft 540 kts 129°
2026-04-25 00:14 23.19411 58.09285 32915 ft 541 kts 124°
2026-04-25 00:14 23.15268 58.16095 32923 ft 541 kts 124°
2026-04-25 00:15 23.11095 58.22841 32923 ft 540 kts 125°
2026-04-25 00:15 23.06854 58.29566 32925 ft 539 kts 126°
2026-04-25 00:16 23.02366 58.36100 32928 ft 537 kts 134°
2026-04-25 00:16 22.99588 58.38811 32928 ft 535 kts 145°
2026-04-25 00:16 22.96523 58.41094 32927 ft 533 kts 148°
2026-04-25 00:17 22.90258 58.45317 32932 ft 533 kts 150°
2026-04-25 00:17 22.83887 58.49466 32924 ft 534 kts 150°
2026-04-25 00:18 22.77525 58.53632 32927 ft 534 kts 150°
2026-04-25 00:18 22.71174 58.57823 32927 ft 534 kts 150°
2026-04-25 00:19 22.64865 58.61997 32925 ft 534 kts 150°
2026-04-25 00:19 22.58531 58.66183 32925 ft 534 kts 150°
2026-04-25 00:20 22.52174 58.70370 32925 ft 534 kts 150°
2026-04-25 00:20 22.45817 58.74555 32925 ft 534 kts 150°
2026-04-25 00:21 22.39461 58.78736 32922 ft 534 kts 150°
2026-04-25 00:21 22.33146 58.82887 32922 ft 534 kts 150°
2026-04-25 00:22 22.26783 58.87068 32921 ft 534 kts 149°
2026-04-25 00:22 22.21105 58.92235 32919 ft 536 kts 133°
2026-04-25 00:23 22.16264 58.98291 32916 ft 536 kts 130°
2026-04-25 00:23 22.11515 59.04517 32906 ft 537 kts 129°
2026-04-25 00:24 22.06747 59.10755 32905 ft 539 kts 130°
2026-04-25 00:24 22.01956 59.16970 32894 ft 539 kts 130°
2026-04-25 00:25 21.97178 59.23140 32897 ft 539 kts 130°
2026-04-25 00:25 21.92372 59.29335 32889 ft 539 kts 130°
2026-04-25 00:26 21.87554 59.35540 32887 ft 539 kts 129°
2026-04-25 00:26 21.82732 59.41745 32878 ft 539 kts 129°
2026-04-25 00:27 21.77915 59.47938 32875 ft 539 kts 129°
2026-04-25 00:27 21.73117 59.54098 32870 ft 539 kts 129°
2026-04-25 00:28 21.68289 59.60290 32866 ft 539 kts 129°
2026-04-25 00:28 21.63466 59.66466 32865 ft 538 kts 129°
2026-04-25 00:29 21.58650 59.72630 32868 ft 537 kts 129°
2026-04-25 00:29 21.53838 59.78780 32867 ft 538 kts 129°
2026-04-25 00:30 21.49041 59.84879 32868 ft 538 kts 129°
2026-04-25 00:30 21.44211 59.91000 32867 ft 537 kts 129°
2026-04-25 00:31 21.39382 59.97117 32869 ft 536 kts 129°
2026-04-25 00:31 21.34561 60.03222 32870 ft 535 kts 129°
2026-04-25 00:32 21.30549 60.08299 32871 ft 535 kts 129°
2026-04-25 00:32 21.25732 60.14386 32870 ft 535 kts 129°
2026-04-25 00:33 21.20137 60.21469 32870 ft 535 kts 129°
2026-04-25 00:33 21.16140 60.26524 32870 ft 535 kts 129°
2026-04-25 00:34 21.11326 60.32609 32870 ft 535 kts 129°
2026-04-25 00:34 21.06517 60.38681 32870 ft 535 kts 129°
2026-04-25 00:35 21.01707 60.44747 32873 ft 535 kts 129°
2026-04-25 00:35 20.96897 60.50807 32873 ft 534 kts 129°
2026-04-25 00:36 20.92089 60.56856 32873 ft 533 kts 128°
2026-04-25 00:36 20.87304 60.62871 32872 ft 533 kts 128°
2026-04-25 00:37 20.82492 60.68915 32875 ft 533 kts 128°
2026-04-25 00:37 20.77671 60.74961 32875 ft 533 kts 128°
2026-04-25 00:38 20.72889 60.80953 32875 ft 532 kts 129°
2026-04-25 00:38 20.68087 60.86965 32878 ft 531 kts 128°
2026-04-25 00:39 20.63282 60.92974 32878 ft 531 kts 129°
2026-04-25 00:39 20.59019 60.99399 32875 ft 529 kts 121°
2026-04-25 00:40 20.55072 61.05966 32880 ft 529 kts 120°
2026-04-25 00:40 20.51139 61.12596 32878 ft 529 kts 120°
2026-04-25 00:41 20.47195 61.19219 32881 ft 529 kts 120°
2026-04-25 00:41 20.43234 61.25840 32881 ft 529 kts 120°
2026-04-25 00:42 20.39267 61.32457 32881 ft 530 kts 121°
2026-04-25 00:42 20.35295 61.39072 32881 ft 529 kts 121°
2026-04-25 00:43 20.31343 61.45649 32884 ft 530 kts 121°
2026-04-25 00:43 20.27367 61.52258 32884 ft 530 kts 121°
2026-04-25 00:44 20.23390 61.58861 32884 ft 530 kts 121°
2026-04-25 00:44 20.19407 61.65468 32883 ft 530 kts 121°
2026-04-25 00:45 20.15409 61.72091 32884 ft 530 kts 121°
2026-04-25 00:45 20.11444 61.78653 32886 ft 530 kts 121°
2026-04-25 00:46 20.07450 61.85254 32886 ft 530 kts 121°
2026-04-25 00:47 20.01458 61.95144 32889 ft 529 kts 121°
2026-04-25 00:47 19.97463 62.01728 32886 ft 529 kts 121°
2026-04-25 00:48 19.93462 62.08317 32891 ft 529 kts 121°
2026-04-25 00:48 19.89487 62.14855 32892 ft 529 kts 121°
2026-04-25 00:49 19.85475 62.21445 32894 ft 529 kts 121°
2026-04-25 00:49 19.81472 62.28014 32892 ft 529 kts 121°
2026-04-25 00:50 19.77490 62.34540 32892 ft 529 kts 121°
2026-04-25 00:50 19.73478 62.41111 32893 ft 529 kts 121°
2026-04-25 00:51 19.69475 62.47658 32890 ft 529 kts 121°
2026-04-25 00:51 19.65469 62.54203 32895 ft 528 kts 121°
2026-04-25 00:52 19.61488 62.60699 32890 ft 527 kts 121°
2026-04-25 00:52 19.57479 62.67235 32893 ft 527 kts 121°
2026-04-25 00:53 19.53472 62.73760 32893 ft 527 kts 121°
2026-04-25 00:53 19.49494 62.80233 32892 ft 527 kts 121°
2026-04-25 00:54 19.45472 62.86769 32891 ft 526 kts 121°
2026-04-25 00:54 19.41487 62.93237 32892 ft 526 kts 121°
2026-04-25 00:55 19.37486 62.99725 32892 ft 526 kts 121°
2026-04-25 00:55 19.33484 63.06207 32892 ft 526 kts 121°
2026-04-25 00:56 19.29475 63.12695 32894 ft 526 kts 121°
2026-04-25 00:56 19.25455 63.19193 32891 ft 526 kts 121°
2026-04-25 00:57 19.21470 63.25626 32892 ft 526 kts 121°
2026-04-25 00:57 19.17454 63.32105 32892 ft 526 kts 121°
2026-04-25 00:58 19.13428 63.38591 32892 ft 526 kts 121°
2026-04-25 00:58 19.09419 63.45045 32894 ft 525 kts 121°
2026-04-25 00:59 19.05425 63.51466 32895 ft 524 kts 121°
2026-04-25 00:59 19.01418 63.57902 32894 ft 524 kts 121°
2026-04-25 01:00 18.97407 63.64343 32896 ft 524 kts 121°
2026-04-25 01:00 18.93394 63.70777 32897 ft 524 kts 121°
2026-04-25 01:01 18.89381 63.77206 32896 ft 522 kts 121°
2026-04-25 01:01 18.85392 63.83590 32895 ft 522 kts 121°
2026-04-25 01:02 18.81401 63.89972 32892 ft 521 kts 121°
2026-04-25 01:02 18.77402 63.96359 32894 ft 522 kts 121°
2026-04-25 01:03 18.73383 64.02774 32894 ft 522 kts 121°
2026-04-25 01:03 18.69382 64.09151 32895 ft 521 kts 121°
2026-04-25 01:04 18.65403 64.15487 32894 ft 520 kts 121°
2026-04-25 01:04 18.61399 64.21857 32895 ft 520 kts 121°
2026-04-25 01:05 18.57416 64.28186 32893 ft 520 kts 121°
2026-04-25 01:05 18.53412 64.34544 32892 ft 521 kts 121°
2026-04-25 01:06 18.49402 64.40904 32895 ft 520 kts 121°
2026-04-25 01:06 18.45412 64.47249 32897 ft 513 kts 121°
2026-04-25 01:07 18.41529 64.53409 32897 ft 499 kts 122°
2026-04-25 01:07 18.39619 64.56392 32906 ft 478 kts 121°
2026-04-25 01:07 18.37813 64.59235 32905 ft 457 kts 121°
2026-04-25 01:07 18.36082 64.61964 32905 ft 438 kts 121°
2026-04-25 01:08 18.34428 64.64576 32905 ft 420 kts 121°
2026-04-25 01:08 18.32843 64.67079 32906 ft 402 kts 121°
2026-04-25 01:08 18.31323 64.69480 32904 ft 385 kts 121°